• MPC Preparation (Info)

  • MPEC 2023-G34 : 2023 FO14

    The following Minor Planet Electronic Circular may be linked-to from your own Web pages, but must not otherwise be redistributed electronically.

    A form allowing access to any MPEC is at the bottom of this page.


    Read MPEC 2023-G33 Read MPEC 2023-G35


    M.P.E.C. 2023-G34                                 Issued 2023 April 5, 19:19 UT
    
         The Minor Planet Electronic Circulars contain information on unusual
             minor planets, routine data on comets and natural satellites,
             and occasional editorial announcements.  They are published
        on behalf of Division F of the International Astronomical Union by the
              Minor Planet Center, Smithsonian Astrophysical Observatory,
                              Cambridge, MA 02138, U.S.A.
    			  
                 Prepared using the Tamkin Foundation Computer Network
    
                                  MPC@CFA.HARVARD.EDU
                URL https://www.minorplanetcenter.net/    ISSN 1523-6714
    
                                    2023 FO14                                
    
    
    Observations:
         K23F14O*!C2023 03 30.05971 11 15 29.27 +01 50 38.2          22.4 iXEG034W84
         K23F14O !C2023 03 30.06179 11 15 29.28 +01 50 36.7          22.2 iXEG034W84
         K23F14O !C2023 03 30.06389 11 15 29.28 +01 50 35.6          22.3 iXEG034W84
         K23F14O !C2023 03 30.06598 11 15 29.29 +01 50 34.5          22.4 iXEG034W84
         K23F14O !C2023 03 30.06805 11 15 29.28 +01 50 33.1          22.0 iXEG034W84
         K23F14O !C2023 03 30.07011 11 15 29.29 +01 50 31.8          22.1 iXEG034W84
         K23F14O !C2023 03 30.07219 11 15 29.29 +01 50 30.5          22.0 iXEG034W84
         K23F14O !C2023 03 30.07426 11 15 29.30 +01 50 29.3          21.8 iXEG034W84
         K23F14O !C2023 03 30.07847 11 15 29.30 +01 50 26.7          21.8 iXEG034W84
         K23F14O !C2023 03 30.08054 11 15 29.30 +01 50 25.4          21.9 iXEG034W84
         K23F14O !C2023 03 30.08262 11 15 29.31 +01 50 24.1          21.8 iXEG034W84
         K23F14O !C2023 03 30.08470 11 15 29.31 +01 50 23.0          22.0 iXEG034W84
         K23F14O !C2023 03 30.08884 11 15 29.31 +01 50 20.5          22.2 iXEG034W84
         K23F14O !C2023 03 30.09090 11 15 29.31 +01 50 19.2          22.5 iXEG034W84
         K23F14O !C2023 03 30.09297 11 15 29.32 +01 50 17.8          22.5 iXEG034W84
         K23F14O !C2023 03 30.09713 11 15 29.32 +01 50 15.3          22.6 iXEG034W84
         K23F14O |C2023 03 31.11992 11 15 43.33 +01 39 42.5          21.4 GVEG034807
         K23F14O |C2023 03 31.13101 11 15 43.39 +01 39 34.9          21.8 GVEG034807
         K23F14O |C2023 03 31.14211 11 15 43.41 +01 39 28.5          21.4 GVEG034807
         K23F14O |C2023 04 01.04694 11 15 59.54 +01 29 57.1          21.8 GVEG034807
         K23F14O |C2023 04 01.05588 11 15 59.62 +01 29 52.1          22.2 GVEG034807
         K23F14O |C2023 04 01.06464 11 15 59.70 +01 29 46.3          21.8 GVEG034807
    
    Observer details:
    807 Cerro Tololo Observatory, La Serena.  Observers T. Linder, R. Holmes, L.
        Horn.  1.00-m f/10.0 astrograph + CCD.
    W84 Cerro Tololo-DECam.  Observer .  Measurer F. Valdes.  4.0-m CTIO reflector
        + DECam.
    
    Orbital elements:
    2023 FO14                                                Earth MOID = 0.2355 AU
    Epoch 2023 Feb. 25.0 TT = JDT 2460000.5                 Bell                    
    M 341.06521              (2000.0)            P               Q                  
    n   0.38459654     Peri.  209.31712     -0.95028472     +0.31130514             
    a   1.8726896      Node   348.81426     -0.27827652     -0.85903013             
    e   0.3399353      Incl.    2.04782     -0.13971799     -0.40639433             
    P   2.56           H   23.99          G   0.15           U   9                  
    Residuals in seconds of arc
    230330 W84  0.1+  0.0     230330 W84  0.0   0.0     230331 807  0.2-  0.3+
    230330 W84  0.2+  0.2-    230330 W84  0.0   0.0     230331 807  0.2+  0.4-
    230330 W84  0.1+  0.0     230330 W84  0.1+  0.1-    230331 807  0.0   0.1+
    230330 W84  0.2+  0.2+    230330 W84  0.1+  0.1+    230401 807  0.2-  0.4-
    230330 W84  0.0   0.1+    230330 W84  0.0   0.1+    230401 807  0.0   0.3+
    230330 W84  0.1+  0.0     230330 W84  0.0   0.1+    230401 807  0.3+  0.1+
    230330 W84  0.0   0.0     230330 W84  0.1+  0.0
    230330 W84  0.1+  0.0     230330 W84  0.1+  0.0
    
    Ephemeris:
    2023 FO14                a,e,i = 1.87, 0.34, 2                   q = 1.2361
    Date    TT    R. A. (2000) Decl.     Delta      r    Elong.  Phase     V
    2023 03 06    11 17 55.4 +05 03 54   0.2958  1.2872   176.4     2.7    22.2
    ...
    2023 03 21    11 15 07.4 +03 14 35   0.2650  1.2567   168.5     9.1    22.2
    ...
    2023 03 29    11 15 16.3 +02 01 03   0.2589  1.2458   161.0    15.1    22.4
    ...
    2023 04 04    11 17 03.4 +00 57 30   0.2585  1.2402   155.9    19.2    22.5
    2023 04 05    11 17 31.1 +00 46 14   0.2587  1.2395   155.1    19.9    22.5
    2023 04 06    11 18 01.8 +00 34 47   0.2591  1.2389   154.3    20.5    22.5
    ...
    2023 04 12    11 22 08.7 -00 37 32   0.2630  1.2364   149.8    24.1    22.7
    ...
    2023 04 20    11 30 29.7 -02 22 07   0.2730  1.2368   144.5    28.1    22.9
    ...
    2023 05 05    11 54 26.2 -05 56 04   0.3057  1.2488   136.8    33.5    23.3
    
    M. P. C. Staff               (C) Copyright 2023 MPC           M.P.E.C. 2023-G34
    


    Read MPEC 2023-G33 Read MPEC 2023-G35


    MPEC number:

    Enter an MPEC number in one of the following forms:

    • 1997-B01 (the full form)
    • J97B01 (the packed version of the full form)
    • B01 (the abbreviated form)